Weather History for Enid, OK

Change the Weather History Date:

Thursday, May 23, 2013

  Actual Average Record
Temperature  
Mean Temperature 62 °F -  
Max Temperature 66 °F 80 °F 96 °F (2000)
Min Temperature 59 °F 59 °F 55 °F (2001)
Degree Days  
Heating Degree Days 2    
Growing Degree Days 12 (Base 50)    
Moisture  
Dew Point 57 °F    
Average Humidity 87    
Maximum Humidity 94    
Minimum Humidity 77    
Precipitation  
Precipitation 0.00 in - - ()
Sea Level Pressure  
Sea Level Pressure 30.02 in    
Wind  
Wind Speed 8 mph (East)    
Max Wind Speed 18 mph    
Max Gust Speed 22 mph    
Visibility 10 miles    
Events      
Averages and records for this station are not official NWS values.
T = Trace of Precipitation, MM = Missing Value Source: NWS Daily Summary

Daily Weather History Graph

Daily Weather History Graph

Search for Another Location

Airport:

Trip Planner

Search our weather history database for the weather conditions in past years. The results will help you decide how hot, cold, wet, or windy it might be!

Date:

Astronomy

May. 23, 2013 Rise Set
Actual Time 6:18 AM CDT 8:37 PM CDT
Civil Twilight 5:49 AM CDT 9:06 PM CDT
Nautical Twilight 5:13 AM CDT 9:43 PM CDT
Astronomical Twilight 4:34 AM CDT 10:22 PM CDT
Moon 7:13 PM CDT (5/23) 5:01 AM CDT (5/23)
Length of Visible Light 15h 17m
Length of Day
14h 18m
Waxing Gibbous, 97% of the Moon is Illuminated
May 23
Waxing Gibbous
May 24
Full
May 31
Last Quarter
Jun 8
New
Jun 16
First Quarter

Hourly Weather History & Observations

Time (CDT) Temp. Dew Point Humidity Pressure Visibility Wind Dir Wind Speed Gust Speed Precip Events Conditions
12:15 AM 62.6 °F 55.4 °F 77% 29.92 in 10.0 mi East 8.1 mph - N/A   Clear
12:35 AM 62.6 °F 57.2 °F 82% 29.92 in 10.0 mi East 8.1 mph - N/A   Clear
12:55 AM 62.6 °F 57.2 °F 82% 29.92 in 10.0 mi East 9.2 mph - N/A   Clear
1:15 AM 62.6 °F 55.4 °F 77% 29.92 in 10.0 mi East 8.1 mph - N/A   Clear
1:35 AM 62.6 °F 55.4 °F 77% 29.92 in 10.0 mi East 8.1 mph - N/A   Clear
1:55 AM 62.6 °F 55.4 °F 77% 29.92 in 10.0 mi East 8.1 mph - N/A   Clear
2:15 AM 60.8 °F 55.4 °F 82% 29.92 in 10.0 mi ESE 4.6 mph - N/A   Clear
2:35 AM 60.8 °F 55.4 °F 82% 29.93 in 10.0 mi SE 3.5 mph - N/A   Clear
2:55 AM 59.0 °F 55.4 °F 88% 29.94 in 10.0 mi SSW 3.5 mph - N/A   Clear
3:15 AM 59.0 °F 55.4 °F 88% 29.95 in 10.0 mi South 3.5 mph - N/A   Clear
3:35 AM 59.0 °F 55.4 °F 88% 29.96 in 10.0 mi Calm Calm - N/A   Clear
3:55 AM 59.0 °F 55.4 °F 88% 29.95 in 10.0 mi Calm Calm - N/A   Clear
4:15 AM 59.0 °F 55.4 °F 88% 29.97 in 10.0 mi Calm Calm - N/A   Clear
4:35 AM 59.0 °F 55.4 °F 88% 29.98 in 10.0 mi Calm Calm - N/A   Clear
4:55 AM 59.0 °F 57.2 °F 94% 29.99 in 10.0 mi NNE 4.6 mph - N/A   Clear
5:15 AM 60.8 °F 59.0 °F 94% 29.98 in 10.0 mi NNE 6.9 mph - N/A   Clear
5:35 AM 60.8 °F 57.2 °F 88% 29.99 in 10.0 mi NNE 5.8 mph - N/A   Clear
5:55 AM 59.0 °F 57.2 °F 94% 29.99 in 10.0 mi NNE 5.8 mph - N/A   Clear
6:15 AM 60.8 °F 59.0 °F 94% 29.96 in 10.0 mi ENE 11.5 mph - N/A   Mostly Cloudy
6:50 AM 60.8 °F 59.0 °F 94% 29.96 in 10.0 mi NNE 11.5 mph - N/A   Mostly Cloudy
7:50 AM 60.8 °F 57.2 °F 88% 30.02 in 10.0 mi NE 12.7 mph - N/A   Mostly Cloudy
8:50 AM 60.8 °F 57.2 °F 88% 30.05 in 10.0 mi NE 11.5 mph - N/A   Overcast
9:50 AM 62.6 °F 55.4 °F 77% 30.09 in 10.0 mi NE 16.1 mph - N/A   Overcast
10:55 AM 62.6 °F 55.4 °F 77% 30.09 in 10.0 mi NE 16.1 mph 21.9 mph N/A   Overcast
11:50 AM 60.8 °F 57.2 °F 88% 30.11 in 10.0 mi East 12.7 mph - N/A   Overcast
12:50 PM 59.0 °F 57.2 °F 94% 30.09 in 10.0 mi NE 17.3 mph - N/A   Overcast
1:50 PM 60.8 °F 59.0 °F 94% 30.10 in 10.0 mi NNE 11.5 mph - N/A   Overcast
3:50 PM 62.6 °F 57.2 °F 82% 30.11 in 10.0 mi ENE 17.3 mph - N/A   Overcast
5:50 PM 66.2 °F 59.0 °F 78% 30.08 in 10.0 mi ENE 18.4 mph - N/A   Mostly Cloudy
6:50 PM 64.4 °F 59.0 °F 83% 30.08 in 10.0 mi ENE 13.8 mph - N/A   Mostly Cloudy
7:50 PM 62.6 °F 59.0 °F 88% 30.08 in 10.0 mi ENE 9.2 mph - N/A   Overcast
8:50 PM 60.8 °F 57.2 °F 88% 30.08 in 10.0 mi NE 8.1 mph - N/A   Overcast
9:15 PM 59.0 °F 57.2 °F 94% 30.09 in 10.0 mi East 4.6 mph - N/A   Clear
9:35 PM 59.0 °F 55.4 °F 88% 30.09 in 10.0 mi ESE 6.9 mph - N/A   Clear
9:55 PM 59.0 °F 57.2 °F 94% 30.09 in 10.0 mi East 6.9 mph - N/A   Clear
10:15 PM 59.0 °F 55.4 °F 88% 30.11 in 10.0 mi East 6.9 mph - N/A   Clear
10:35 PM 59.0 °F 57.2 °F 94% 30.12 in 10.0 mi ESE 4.6 mph - N/A   Clear
10:55 PM 59.0 °F 57.2 °F 94% 30.12 in 10.0 mi ESE 6.9 mph - N/A   Clear
11:15 PM 59.0 °F 57.2 °F 94% 30.13 in 10.0 mi ESE 6.9 mph - N/A   Clear
11:35 PM 59.0 °F 57.2 °F 94% 30.14 in 10.0 mi ESE 5.8 mph - N/A   Clear
11:55 PM 59.0 °F 55.4 °F 88% 30.14 in 10.0 mi ESE 5.8 mph - N/A   Clear